Time,TemperatureF,DewpointF,PressureIn,WindDirection,WindDirectionDegrees,WindSpeedMPH,WindSpeedGustMPH,Humidity,HourlyPrecipIn,Conditions,Clouds,dailyrainin,SoftwareType,DateUTC
2013-02-27 00:01:00,36.0,34.7,30.06,West,270,0.7,1.6,95,0.00,CLR,BKN,0.00,WeatherDisplay:10.37,2013-02-27 08:01:00,
2013-02-27 00:06:00,36.0,34.7,30.06,West,270,0.7,1.6,95,0.00,CLR,BKN,0.00,WeatherDisplay:10.37,2013-02-27 08:06:00,
2013-02-27 00:11:00,35.4,34.1,30.06,SW,225,0.0,1.1,95,0.00,CLR,BKN,0.00,WeatherDisplay:10.37,2013-02-27 08:11:00,
2013-02-27 00:16:00,35.1,33.8,30.06,SW,225,0.0,1.1,95,0.00,CLR,BKN,0.00,WeatherDisplay:10.37,2013-02-27 08:16:00,
2013-02-27 00:21:00,34.7,33.4,30.06,NW,315,0.0,1.1,95,0.00,CLR,BKN,0.00,WeatherDisplay:10.37,2013-02-27 08:21:00,
2013-02-27 00:26:00,34.5,33.2,30.06,NW,315,0.0,1.1,95,0.00,CLR,BKN,0.00,WeatherDisplay:10.37,2013-02-27 08:26:00,
2013-02-27 00:27:00,34.2,32.9,30.06,West,270,0.0,1.1,95,0.00,CLR,BKN,0.00,WeatherDisplay:10.37,2013-02-27 08:27:00,
2013-02-27 00:31:00,34.5,33.2,30.06,West,270,0.0,1.1,95,0.00,CLR,BKN,0.00,WeatherDisplay:10.37,2013-02-27 08:31:00,
2013-02-27 00:36:00,34.3,33.1,30.06,NW,315,0.0,2.3,95,0.00,CLR,BKN,0.00,WeatherDisplay:10.37,2013-02-27 08:36:00,
2013-02-27 01:01:00,33.4,32.2,30.07,NW,315,0.0,1.1,95,0.00,CLR,BKN,0.00,WeatherDisplay:10.37,2013-02-27 09:01:00,
2013-02-27 01:06:00,33.4,32.2,30.06,NW,315,0.0,1.1,95,0.00,CLR,BKN,0.00,WeatherDisplay:10.37,2013-02-27 09:06:00,
2013-02-27 01:11:00,33.1,31.8,30.07,NW,315,0.0,1.1,95,0.00,CLR,BKN,0.00,WeatherDisplay:10.37,2013-02-27 09:11:00,
2013-02-27 01:16:00,32.9,31.6,30.07,West,270,0.0,1.1,95,0.00,CLR,BKN,0.00,WeatherDisplay:10.37,2013-02-27 09:16:00,
2013-02-27 01:21:00,32.5,31.3,30.07,West,270,0.0,0.0,95,0.00,CLR,BKN,0.00,WeatherDisplay:10.37,2013-02-27 09:21:00,
2013-02-27 01:26:00,32.5,31.3,30.08,South,180,0.7,3.4,95,0.00,CLR,BKN,0.00,WeatherDisplay:10.37,2013-02-27 09:26:00,
2013-02-27 01:27:00,32.2,30.9,30.07,West,270,0.0,1.1,95,0.00,CLR,BKN,0.00,WeatherDisplay:10.37,2013-02-27 09:27:00,
2013-02-27 01:31:00,32.5,31.3,30.07,SW,225,0.0,1.6,95,0.00,CLR,BKN,0.00,WeatherDisplay:10.37,2013-02-27 09:31:00,
2013-02-27 01:36:00,32.4,31.1,30.07,West,270,0.0,1.1,95,0.00,CLR,BKN,0.00,WeatherDisplay:10.37,2013-02-27 09:36:00,
2013-02-27 02:01:00,31.6,30.4,30.08,West,270,0.0,1.6,95,0.00,CLR,BKN,0.00,WeatherDisplay:10.37,2013-02-27 10:01:00,
2013-02-27 02:06:00,31.6,30.4,30.08,West,270,0.0,1.6,95,0.00,CLR,BKN,0.00,WeatherDisplay:10.37,2013-02-27 10:06:00,
2013-02-27 02:11:00,31.3,30.0,30.08,NE,45,0.0,0.0,95,0.00,CLR,BKN,0.00,WeatherDisplay:10.37,2013-02-27 10:11:00,
2013-02-27 02:16:00,31.1,29.8,30.08,North,0,0.0,1.1,95,0.00,CLR,BKN,0.00,WeatherDisplay:10.37,2013-02-27 10:16:00,
2013-02-27 02:21:00,30.9,29.7,30.08,SW,225,0.0,0.0,95,0.00,CLR,BKN,0.00,WeatherDisplay:10.37,2013-02-27 10:21:00,
2013-02-27 02:26:00,30.7,29.5,30.08,West,270,0.0,1.1,95,0.00,CLR,BKN,0.00,WeatherDisplay:10.37,2013-02-27 10:26:00,
2013-02-27 02:27:00,30.4,29.1,30.08,West,270,0.0,1.1,95,0.00,CLR,BKN,0.00,WeatherDisplay:10.37,2013-02-27 10:27:00,
2013-02-27 02:31:00,30.6,29.3,30.08,West,270,0.0,1.1,95,0.00,CLR,BKN,0.00,WeatherDisplay:10.37,2013-02-27 10:31:00,
2013-02-27 02:36:00,30.4,29.1,30.08,NW,315,0.0,1.1,95,0.00,CLR,BKN,0.00,WeatherDisplay:10.37,2013-02-27 10:36:00,
2013-02-27 03:01:00,30.9,29.7,30.09,West,270,0.0,1.6,95,0.00,CLR,BKN,0.00,WeatherDisplay:10.37,2013-02-27 11:01:00,
2013-02-27 03:06:00,30.9,29.7,30.10,West,270,0.0,1.6,95,0.00,CLR,BKN,0.00,WeatherDisplay:10.37,2013-02-27 11:06:00,
2013-02-27 03:11:00,31.1,29.8,30.10,SW,225,0.7,2.3,95,0.00,CLR,BKN,0.00,WeatherDisplay:10.37,2013-02-27 11:11:00,
2013-02-27 03:16:00,31.1,29.8,30.10,SW,225,0.0,1.6,95,0.00,CLR,BKN,0.00,WeatherDisplay:10.37,2013-02-27 11:16:00,
2013-02-27 03:21:00,31.1,29.8,30.10,NW,315,0.0,3.4,95,0.00,CLR,BKN,0.00,WeatherDisplay:10.37,2013-02-27 11:21:00,
2013-02-27 03:26:00,31.5,30.5,30.10,NW,315,1.6,3.4,96,0.00,CLR,BKN,0.00,WeatherDisplay:10.37,2013-02-27 11:26:00,
2013-02-27 03:27:00,31.6,30.6,30.10,East,90,0.0,2.3,96,0.00,CLR,BKN,0.00,WeatherDisplay:10.37,2013-02-27 11:27:00,
2013-02-27 03:31:00,31.6,30.6,30.10,NW,315,0.0,1.1,96,0.00,CLR,BKN,0.00,WeatherDisplay:10.37,2013-02-27 11:31:00,
2013-02-27 03:36:00,31.8,30.8,30.10,SE,135,0.0,2.3,96,0.00,CLR,BKN,0.00,WeatherDisplay:10.37,2013-02-27 11:36:00,
2013-02-27 04:01:00,30.7,29.7,30.11,West,270,0.0,0.0,96,0.00,CLR,BKN,0.00,WeatherDisplay:10.37,2013-02-27 12:01:00,
2013-02-27 04:06:00,30.7,29.7,30.11,West,270,0.0,0.0,96,0.00,CLR,BKN,0.00,WeatherDisplay:10.37,2013-02-27 12:06:00,
2013-02-27 04:11:00,30.6,29.6,30.11,NW,315,0.0,1.1,96,0.00,CLR,BKN,0.00,WeatherDisplay:10.37,2013-02-27 12:11:00,
2013-02-27 04:16:00,30.7,29.7,30.12,NNW,338,0.0,5.8,96,0.00,CLR,BKN,0.00,WeatherDisplay:10.37,2013-02-27 12:16:00,
2013-02-27 04:21:00,30.7,29.7,30.12,NW,315,0.0,2.3,96,0.00,CLR,BKN,0.00,WeatherDisplay:10.37,2013-02-27 12:21:00,
2013-02-27 04:26:00,30.4,29.1,30.12,West,270,0.0,1.1,95,0.00,CLR,BKN,0.00,WeatherDisplay:10.37,2013-02-27 12:26:00,
2013-02-27 04:27:00,30.2,29.2,30.13,SE,135,0.0,2.3,96,0.00,CLR,BKN,0.00,WeatherDisplay:10.37,2013-02-27 12:27:00,
2013-02-27 04:31:00,30.2,29.2,30.13,NW,315,0.0,1.1,96,0.00,CLR,BKN,0.00,WeatherDisplay:10.37,2013-02-27 12:31:00,
2013-02-27 04:36:00,30.2,29.2,30.13,SE,135,0.0,5.8,96,0.00,CLR,BKN,0.00,WeatherDisplay:10.37,2013-02-27 12:36:00,
2013-02-27 05:01:00,29.8,28.6,30.14,West,270,0.0,1.6,95,0.00,CLR,BKN,0.00,WeatherDisplay:10.37,2013-02-27 13:01:00,
2013-02-27 05:06:00,29.8,28.6,30.14,West,270,0.0,1.6,95,0.00,CLR,BKN,0.00,WeatherDisplay:10.37,2013-02-27 13:06:00,
2013-02-27 05:11:00,29.7,28.4,30.14,West,270,0.0,1.1,95,0.00,CLR,BKN,0.00,WeatherDisplay:10.37,2013-02-27 13:11:00,
2013-02-27 05:16:00,29.3,28.0,30.14,NW,315,0.0,0.0,95,0.00,CLR,BKN,0.00,WeatherDisplay:10.37,2013-02-27 13:16:00,
2013-02-27 05:21:00,29.3,28.3,30.14,NW,315,0.0,1.1,96,0.00,CLR,BKN,0.00,WeatherDisplay:10.37,2013-02-27 13:21:00,
2013-02-27 05:26:00,29.7,28.7,30.15,West,270,2.2,3.4,96,0.00,CLR,BKN,0.00,WeatherDisplay:10.37,2013-02-27 13:26:00,
2013-02-27 05:27:00,29.7,28.7,30.15,North,0,0.0,2.3,96,0.00,CLR,BKN,0.00,WeatherDisplay:10.37,2013-02-27 13:27:00,
2013-02-27 05:31:00,29.7,28.7,30.15,North,0,0.0,1.1,96,0.00,CLR,BKN,0.00,WeatherDisplay:10.37,2013-02-27 13:31:00,
2013-02-27 05:36:00,29.7,28.7,30.15,NW,315,0.0,2.3,96,0.00,CLR,BKN,0.00,WeatherDisplay:10.37,2013-02-27 13:36:00,
2013-02-27 06:01:00,30.0,29.0,30.16,North,0,0.0,1.1,96,0.00,CLR,BKN,0.00,WeatherDisplay:10.37,2013-02-27 14:01:00,
2013-02-27 06:06:00,30.0,29.0,30.17,North,0,0.0,1.1,96,0.00,CLR,BKN,0.00,WeatherDisplay:10.37,2013-02-27 14:06:00,
2013-02-27 06:11:00,29.7,28.7,30.17,SW,225,0.0,1.1,96,0.00,CLR,BKN,0.00,WeatherDisplay:10.37,2013-02-27 14:11:00,
2013-02-27 06:16:00,29.3,28.3,30.16,SW,225,0.0,1.1,96,0.00,CLR,BKN,0.00,WeatherDisplay:10.37,2013-02-27 14:16:00,
2013-02-27 06:21:00,29.1,28.1,30.16,SW,225,0.0,0.0,96,0.00,CLR,BKN,0.00,WeatherDisplay:10.37,2013-02-27 14:21:00,
2013-02-27 06:26:00,28.9,27.7,30.16,SW,225,0.0,1.1,95,0.00,CLR,BKN,0.00,WeatherDisplay:10.37,2013-02-27 14:26:00,
2013-02-27 06:27:00,29.3,28.3,30.16,SW,225,0.0,2.3,96,0.00,CLR,BKN,0.00,WeatherDisplay:10.37,2013-02-27 14:27:00,
2013-02-27 06:31:00,29.1,28.1,30.17,SW,225,0.0,1.1,96,0.00,CLR,BKN,0.00,WeatherDisplay:10.37,2013-02-27 14:31:00,
2013-02-27 06:36:00,29.1,28.1,30.17,SW,225,0.7,2.3,96,0.00,CLR,BKN,0.00,WeatherDisplay:10.37,2013-02-27 14:36:00,
2013-02-27 07:01:00,29.3,28.3,30.16,SW,225,0.0,0.0,96,0.00,CLR,BKN,0.00,WeatherDisplay:10.37,2013-02-27 15:01:00,
2013-02-27 07:06:00,29.3,28.3,30.16,SW,225,0.0,0.0,96,0.00,CLR,BKN,0.00,WeatherDisplay:10.37,2013-02-27 15:06:00,
2013-02-27 07:11:00,29.3,28.3,30.17,SW,225,0.0,0.0,96,0.00,CLR,BKN,0.00,WeatherDisplay:10.37,2013-02-27 15:11:00,
2013-02-27 07:16:00,29.3,28.3,30.17,SW,225,0.0,0.0,96,0.00,CLR,BKN,0.00,WeatherDisplay:10.37,2013-02-27 15:16:00,
2013-02-27 07:21:00,29.5,28.5,30.17,SW,225,0.0,0.0,96,0.00,CLR,BKN,0.00,WeatherDisplay:10.37,2013-02-27 15:21:00,
2013-02-27 07:26:00,29.5,28.5,30.17,SW,225,0.0,0.0,96,0.00,CLR,BKN,0.00,WeatherDisplay:10.37,2013-02-27 15:26:00,
2013-02-27 07:27:00,29.8,28.8,30.17,SW,225,0.0,0.0,96,0.00,CLR,BKN,0.00,WeatherDisplay:10.37,2013-02-27 15:27:00,
2013-02-27 07:31:00,29.7,28.7,30.17,SW,225,0.0,0.0,96,0.00,CLR,BKN,0.00,WeatherDisplay:10.37,2013-02-27 15:31:00,
2013-02-27 07:36:00,29.8,28.8,30.17,SW,225,0.0,0.0,96,0.00,CLR,BKN,0.00,WeatherDisplay:10.37,2013-02-27 15:36:00,
2013-02-27 08:01:00,32.0,31.0,30.17,SW,225,0.0,0.0,96,0.00,CLR,BKN,0.00,WeatherDisplay:10.37,2013-02-27 16:01:00,
2013-02-27 08:06:00,33.1,32.1,30.18,SW,225,0.0,0.0,96,0.00,CLR,BKN,0.00,WeatherDisplay:10.37,2013-02-27 16:06:00,
2013-02-27 08:11:00,33.1,32.1,30.17,SW,225,0.0,0.0,96,0.00,CLR,BKN,0.00,WeatherDisplay:10.37,2013-02-27 16:11:00,
2013-02-27 08:16:00,33.1,32.1,30.17,SW,225,0.0,0.0,96,0.00,CLR,BKN,0.00,WeatherDisplay:10.37,2013-02-27 16:16:00,
2013-02-27 08:21:00,32.9,31.9,30.17,SW,225,0.0,0.0,96,0.00,CLR,BKN,0.00,WeatherDisplay:10.37,2013-02-27 16:21:00,
2013-02-27 08:26:00,33.1,32.1,30.17,SW,225,0.0,0.0,96,0.00,CLR,BKN,0.00,WeatherDisplay:10.37,2013-02-27 16:26:00,
2013-02-27 08:27:00,35.4,34.4,30.17,SW,225,0.0,0.0,96,0.00,CLR,BKN,0.00,WeatherDisplay:10.37,2013-02-27 16:27:00,
2013-02-27 08:31:00,33.8,32.8,30.17,SW,225,0.0,0.0,96,0.00,CLR,BKN,0.00,WeatherDisplay:10.37,2013-02-27 16:31:00,
2013-02-27 08:36:00,35.2,34.2,30.17,SW,225,0.0,0.0,96,0.00,CLR,BKN,0.00,WeatherDisplay:10.37,2013-02-27 16:36:00,
2013-02-27 09:01:00,42.8,40.9,30.18,SE,135,0.0,1.6,93,0.00,CLR,BKN,0.00,WeatherDisplay:10.37,2013-02-27 17:01:00,
2013-02-27 09:06:00,42.3,39.2,30.19,NW,315,0.0,1.1,89,0.00,CLR,BKN,0.00,WeatherDisplay:10.37,2013-02-27 17:06:00,
2013-02-27 09:11:00,42.1,38.2,30.18,SE,135,1.6,2.3,86,0.00,CLR,BKN,0.00,WeatherDisplay:10.37,2013-02-27 17:11:00,
2013-02-27 09:16:00,41.4,37.2,30.18,SE,135,0.7,3.4,85,0.00,CLR,BKN,0.00,WeatherDisplay:10.37,2013-02-27 17:16:00,
2013-02-27 09:21:00,40.6,36.5,30.19,NE,45,0.0,2.3,85,0.00,CLR,BKN,0.00,WeatherDisplay:10.37,2013-02-27 17:21:00,
2013-02-27 09:26:00,40.1,35.7,30.19,East,90,0.7,3.4,84,0.00,CLR,BKN,0.00,WeatherDisplay:10.37,2013-02-27 17:26:00,
2013-02-27 09:27:00,39.0,34.9,30.19,SE,135,2.2,4.6,85,0.00,CLR,BKN,0.00,WeatherDisplay:10.37,2013-02-27 17:27:00,
2013-02-27 09:31:00,39.6,35.1,30.19,NE,45,0.7,2.3,84,0.00,CLR,BKN,0.00,WeatherDisplay:10.37,2013-02-27 17:31:00,
2013-02-27 09:36:00,39.0,34.9,30.18,East,90,0.7,4.6,85,0.00,CLR,BKN,0.00,WeatherDisplay:10.37,2013-02-27 17:36:00,
2013-02-27 10:01:00,39.7,36.2,30.19,East,90,1.6,3.8,87,0.00,CLR,BKN,0.00,WeatherDisplay:10.37,2013-02-27 18:01:00,
2013-02-27 10:06:00,39.7,36.2,30.19,East,90,1.6,3.8,87,0.00,CLR,BKN,0.00,WeatherDisplay:10.37,2013-02-27 18:06:00,
2013-02-27 10:11:00,39.6,35.4,30.19,NE,45,2.2,5.8,85,0.00,CLR,BKN,0.00,WeatherDisplay:10.37,2013-02-27 18:11:00,
2013-02-27 10:16:00,39.6,35.7,30.19,East,90,0.7,3.4,86,0.00,CLR,BKN,0.00,WeatherDisplay:10.37,2013-02-27 18:16:00,
2013-02-27 10:21:00,39.9,36.1,30.19,East,90,1.6,5.8,86,0.00,CLR,BKN,0.00,WeatherDisplay:10.37,2013-02-27 18:21:00,
2013-02-27 10:26:00,40.3,36.4,30.19,SE,135,1.6,3.4,86,0.00,CLR,BKN,0.00,WeatherDisplay:10.37,2013-02-27 18:26:00,
2013-02-27 10:27:00,40.6,36.8,30.20,SE,135,3.1,5.8,86,0.00,CLR,BKN,0.00,WeatherDisplay:10.37,2013-02-27 18:27:00,
2013-02-27 10:31:00,40.5,36.6,30.20,East,90,1.6,3.4,86,0.00,CLR,BKN,0.00,WeatherDisplay:10.37,2013-02-27 18:31:00,
2013-02-27 10:36:00,40.5,36.6,30.19,East,90,1.6,5.8,86,0.00,CLR,BKN,0.00,WeatherDisplay:10.37,2013-02-27 18:36:00,
2013-02-27 11:01:00,41.5,37.4,30.20,SE,135,1.6,3.8,85,0.00,CLR,BKN,0.00,WeatherDisplay:10.37,2013-02-27 19:01:00,
2013-02-27 11:06:00,41.5,37.4,30.21,SE,135,1.6,3.4,85,0.00,CLR,BKN,0.00,WeatherDisplay:10.37,2013-02-27 19:06:00,
2013-02-27 11:11:00,42.1,37.6,30.21,East,90,3.1,4.6,84,0.00,CLR,BKN,0.00,WeatherDisplay:10.37,2013-02-27 19:11:00,
2013-02-27 11:16:00,42.1,37.3,30.20,East,90,3.1,6.9,83,0.00,CLR,BKN,0.00,WeatherDisplay:10.37,2013-02-27 19:16:00,
2013-02-27 11:21:00,42.3,37.5,30.21,East,90,2.2,4.6,83,0.00,CLR,BKN,0.00,WeatherDisplay:10.37,2013-02-27 19:21:00,
2013-02-27 11:26:00,42.4,37.0,30.21,East,90,2.2,6.9,81,0.00,CLR,BKN,0.00,WeatherDisplay:10.37,2013-02-27 19:26:00,
2013-02-27 11:27:00,43.7,37.6,30.20,SE,135,3.8,8.1,79,0.00,CLR,BKN,0.00,WeatherDisplay:10.37,2013-02-27 19:27:00,
2013-02-27 11:31:00,43.2,37.7,30.20,East,90,2.2,4.6,81,0.00,CLR,BKN,0.00,WeatherDisplay:10.37,2013-02-27 19:31:00,
2013-02-27 11:36:00,43.7,37.9,30.20,SE,135,4.5,8.1,80,0.00,CLR,BKN,0.00,WeatherDisplay:10.37,2013-02-27 19:36:00,
2013-02-27 12:01:00,44.4,37.7,30.20,East,90,3.1,4.6,77,0.00,CLR,BKN,0.00,WeatherDisplay:10.37,2013-02-27 20:01:00,
2013-02-27 12:06:00,44.4,37.7,30.21,East,90,3.1,4.6,77,0.00,CLR,BKN,0.00,WeatherDisplay:10.37,2013-02-27 20:06:00,
2013-02-27 12:11:00,44.2,37.2,30.21,SE,135,2.2,5.8,76,0.00,CLR,BKN,0.00,WeatherDisplay:10.37,2013-02-27 20:11:00,
2013-02-27 12:16:00,44.2,37.2,30.21,SE,135,2.2,3.4,76,0.00,CLR,BKN,0.00,WeatherDisplay:10.37,2013-02-27 20:16:00,
2013-02-27 12:21:00,44.4,37.0,30.21,SE,135,2.2,5.8,75,0.00,CLR,BKN,0.00,WeatherDisplay:10.37,2013-02-27 20:21:00,
2013-02-27 12:26:00,44.1,37.0,30.20,NE,45,1.6,5.8,76,0.00,CLR,BKN,0.00,WeatherDisplay:10.37,2013-02-27 20:26:00,
2013-02-27 12:27:00,43.9,36.5,30.19,East,90,2.2,6.9,75,0.00,CLR,BKN,0.00,WeatherDisplay:10.37,2013-02-27 20:27:00,
2013-02-27 12:31:00,43.9,36.5,30.19,SE,135,3.1,5.8,75,0.00,CLR,BKN,0.00,WeatherDisplay:10.37,2013-02-27 20:31:00,
2013-02-27 12:36:00,43.9,36.5,30.19,East,90,3.1,6.9,75,0.00,CLR,BKN,0.00,WeatherDisplay:10.37,2013-02-27 20:36:00,
2013-02-27 13:01:00,44.6,37.2,30.19,East,90,2.2,5.8,75,0.00,CLR,BKN,0.00,WeatherDisplay:10.37,2013-02-27 21:01:00,
2013-02-27 13:06:00,44.6,37.2,30.19,East,90,2.2,5.8,75,0.00,CLR,BKN,0.00,WeatherDisplay:10.37,2013-02-27 21:06:00,
2013-02-27 13:11:00,44.6,37.2,30.19,ESE,112,0.7,3.4,75,0.00,CLR,BKN,0.00,WeatherDisplay:10.37,2013-02-27 21:11:00,
2013-02-27 13:16:00,44.6,37.2,30.20,East,90,1.6,4.6,75,0.00,CLR,BKN,0.00,WeatherDisplay:10.37,2013-02-27 21:16:00,
2013-02-27 13:21:00,44.4,36.6,30.20,SE,135,0.7,4.6,74,0.00,CLR,BKN,0.00,WeatherDisplay:10.37,2013-02-27 21:21:00,
2013-02-27 13:26:00,44.2,36.5,30.20,SE,135,1.6,3.4,74,0.00,CLR,BKN,0.00,WeatherDisplay:10.37,2013-02-27 21:26:00,
2013-02-27 13:27:00,44.1,36.3,30.19,SE,135,1.6,5.8,74,0.00,CLR,BKN,0.00,WeatherDisplay:10.37,2013-02-27 21:27:00,
2013-02-27 13:31:00,44.2,36.1,30.19,SE,135,2.2,4.6,73,0.00,CLR,BKN,0.00,WeatherDisplay:10.37,2013-02-27 21:31:00,
2013-02-27 13:36:00,44.1,36.3,30.19,East,90,3.8,5.8,74,0.00,CLR,BKN,0.00,WeatherDisplay:10.37,2013-02-27 21:36:00,
2013-02-27 14:01:00,44.1,36.6,30.19,SE,135,2.2,4.6,75,0.00,CLR,BKN,0.00,WeatherDisplay:10.37,2013-02-27 22:01:00,
2013-02-27 14:06:00,44.1,37.0,30.19,SE,135,1.6,4.6,76,0.00,CLR,BKN,0.00,WeatherDisplay:10.37,2013-02-27 22:06:00,
2013-02-27 14:11:00,43.9,37.1,30.18,SE,135,3.1,5.8,77,0.00,CLR,BKN,0.00,WeatherDisplay:10.37,2013-02-27 22:11:00,
2013-02-27 14:16:00,43.9,37.1,30.19,East,90,3.8,6.0,77,0.00,CLR,BKN,0.00,WeatherDisplay:10.37,2013-02-27 22:16:00,
2013-02-27 14:21:00,43.7,37.0,30.19,East,90,3.8,6.0,77,0.00,CLR,BKN,0.00,WeatherDisplay:10.37,2013-02-27 22:21:00,
2013-02-27 14:26:00,43.7,37.0,30.19,East,90,1.6,5.8,77,0.00,CLR,BKN,0.00,WeatherDisplay:10.37,2013-02-27 22:26:00,
2013-02-27 14:27:00,43.7,36.6,30.18,SE,135,1.6,4.6,76,0.00,CLR,BKN,0.00,WeatherDisplay:10.37,2013-02-27 22:27:00,
2013-02-27 14:31:00,43.9,37.1,30.19,East,90,1.6,4.6,77,0.00,CLR,BKN,0.00,WeatherDisplay:10.37,2013-02-27 22:31:00,
2013-02-27 14:36:00,43.7,36.6,30.18,East,90,3.1,6.9,76,0.00,CLR,BKN,0.00,WeatherDisplay:10.37,2013-02-27 22:36:00,
2013-02-27 15:01:00,43.9,37.5,30.19,ENE,68,0.7,3.4,78,0.00,CLR,BKN,0.00,WeatherDisplay:10.37,2013-02-27 23:01:00,
2013-02-27 15:06:00,43.7,37.9,30.18,ESE,112,1.6,5.8,80,0.00,CLR,BKN,0.00,WeatherDisplay:10.37,2013-02-27 23:06:00,
2013-02-27 15:11:00,43.7,37.9,30.18,East,90,0.7,3.4,80,0.00,CLR,BKN,0.00,WeatherDisplay:10.37,2013-02-27 23:11:00,
2013-02-27 15:16:00,43.9,38.1,30.18,SE,135,2.2,5.8,80,0.00,CLR,BKN,0.00,WeatherDisplay:10.37,2013-02-27 23:16:00,
2013-02-27 15:21:00,43.9,38.1,30.18,East,90,1.6,3.4,80,0.00,CLR,BKN,0.00,WeatherDisplay:10.37,2013-02-27 23:21:00,
2013-02-27 15:26:00,44.1,38.3,30.18,SE,135,3.1,5.8,80,0.00,CLR,BKN,0.00,WeatherDisplay:10.37,2013-02-27 23:26:00,
2013-02-27 15:27:00,44.1,37.6,30.20,East,90,2.2,3.4,78,0.00,CLR,BKN,0.00,WeatherDisplay:10.37,2013-02-27 23:27:00,
2013-02-27 15:31:00,44.1,38.0,30.18,East,90,2.2,4.6,79,0.00,CLR,BKN,0.00,WeatherDisplay:10.37,2013-02-27 23:31:00,
2013-02-27 15:36:00,44.1,37.6,30.19,SE,135,2.2,4.6,78,0.00,CLR,BKN,0.00,WeatherDisplay:10.37,2013-02-27 23:36:00,
2013-02-27 16:01:00,44.2,38.1,30.20,East,90,0.7,2.3,79,0.00,CLR,BKN,0.00,WeatherDisplay:10.37,2013-02-28 00:01:00,
2013-02-27 16:06:00,44.2,38.1,30.20,SE,135,0.7,1.1,79,0.00,CLR,BKN,0.00,WeatherDisplay:10.37,2013-02-28 00:06:00,
2013-02-27 16:11:00,44.2,38.1,30.21,South,180,0.0,2.3,79,0.00,CLR,BKN,0.00,WeatherDisplay:10.37,2013-02-28 00:11:00,
2013-02-27 16:16:00,44.1,36.6,30.19,SE,135,1.6,3.4,75,0.00,CLR,BKN,0.00,WeatherDisplay:10.37,2013-02-28 00:16:00,
2013-02-27 16:21:00,43.9,35.4,30.20,SE,135,1.6,3.4,72,0.00,CLR,BKN,0.00,WeatherDisplay:10.37,2013-02-28 00:21:00,
2013-02-27 16:26:00,43.7,35.6,30.20,East,90,1.6,3.8,73,0.00,CLR,BKN,0.00,WeatherDisplay:10.37,2013-02-28 00:26:00,
2013-02-27 16:27:00,43.3,35.3,30.19,SSE,158,1.6,3.4,73,0.00,CLR,BKN,0.00,WeatherDisplay:10.37,2013-02-28 00:27:00,
2013-02-27 16:31:00,43.5,35.8,30.20,East,90,0.0,3.4,74,0.00,CLR,BKN,0.00,WeatherDisplay:10.37,2013-02-28 00:31:00,
2013-02-27 16:36:00,43.3,35.3,30.19,East,90,1.6,3.4,73,0.00,CLR,BKN,0.00,WeatherDisplay:10.37,2013-02-28 00:36:00,
2013-02-27 17:01:00,42.8,35.8,30.19,SE,135,0.7,2.3,76,0.00,CLR,BKN,0.00,WeatherDisplay:10.37,2013-02-28 01:01:00,
2013-02-27 17:06:00,42.6,35.6,30.19,East,90,0.0,2.3,76,0.00,CLR,BKN,0.00,WeatherDisplay:10.37,2013-02-28 01:06:00,
2013-02-27 17:11:00,42.4,35.7,30.18,SE,135,1.6,3.4,77,0.00,CLR,BKN,0.00,WeatherDisplay:10.37,2013-02-28 01:11:00,
2013-02-27 17:16:00,42.4,36.1,30.18,East,90,0.7,3.4,78,0.00,CLR,BKN,0.00,WeatherDisplay:10.37,2013-02-28 01:16:00,
2013-02-27 17:21:00,42.3,35.9,30.17,SE,135,2.2,3.8,78,0.00,CLR,BKN,0.00,WeatherDisplay:10.37,2013-02-28 01:21:00,
2013-02-27 17:26:00,42.3,35.9,30.17,East,90,3.8,6.9,78,0.01,RA,BKN,0.01,WeatherDisplay:10.37,2013-02-28 01:26:00,
2013-02-27 17:27:00,42.1,37.0,30.20,NE,45,1.6,3.4,82,0.01,,BKN,0.01,WeatherDisplay:10.37,2013-02-28 01:27:00,
2013-02-27 17:31:00,42.1,36.7,30.18,SE,135,3.8,8.1,81,0.01,RA,BKN,0.01,WeatherDisplay:10.37,2013-02-28 01:31:00,
2013-02-27 17:36:00,42.1,37.0,30.20,SE,135,0.7,3.4,82,0.01,,BKN,0.01,WeatherDisplay:10.37,2013-02-28 01:36:00,
2013-02-27 18:01:00,40.6,36.8,30.19,East,90,1.6,5.8,86,0.01,CLR,BKN,0.01,WeatherDisplay:10.37,2013-02-28 02:01:00,
2013-02-27 18:06:00,40.6,36.8,30.18,East,90,1.6,3.8,86,0.01,CLR,BKN,0.01,WeatherDisplay:10.37,2013-02-28 02:06:00,
2013-02-27 18:11:00,40.3,36.4,30.19,SE,135,0.0,3.4,86,0.01,CLR,BKN,0.01,WeatherDisplay:10.37,2013-02-28 02:11:00,
2013-02-27 18:16:00,40.1,36.2,30.20,SE,135,0.0,3.4,86,0.01,CLR,BKN,0.01,WeatherDisplay:10.37,2013-02-28 02:16:00,
2013-02-27 18:21:00,40.1,36.5,30.20,East,90,0.7,2.3,87,0.01,CLR,BKN,0.01,WeatherDisplay:10.37,2013-02-28 02:21:00,
2013-02-27 18:26:00,39.9,36.4,30.20,East,90,0.7,3.4,87,0.00,CLR,BKN,0.01,WeatherDisplay:10.37,2013-02-28 02:26:00,
2013-02-27 18:27:00,39.6,36.3,30.20,East,90,1.6,3.4,88,0.00,CLR,BKN,0.01,WeatherDisplay:10.37,2013-02-28 02:27:00,
2013-02-27 18:31:00,39.7,36.5,30.20,ESE,112,2.2,3.8,88,0.00,CLR,BKN,0.01,WeatherDisplay:10.37,2013-02-28 02:31:00,
2013-02-27 18:36:00,39.6,36.3,30.19,SE,135,1.6,4.6,88,0.00,CLR,BKN,0.01,WeatherDisplay:10.37,2013-02-28 02:36:00,
2013-02-27 19:01:00,38.8,35.9,30.20,South,180,0.7,2.3,89,0.00,CLR,BKN,0.01,WeatherDisplay:10.37,2013-02-28 03:01:00,
2013-02-27 19:06:00,38.8,35.9,30.20,South,180,0.7,2.3,89,0.00,CLR,BKN,0.01,WeatherDisplay:10.37,2013-02-28 03:06:00,
2013-02-27 19:11:00,38.5,35.8,30.19,SE,135,0.7,3.4,90,0.00,CLR,BKN,0.01,WeatherDisplay:10.37,2013-02-28 03:11:00,
2013-02-27 19:16:00,38.5,35.8,30.20,ESE,112,0.7,3.4,90,0.00,CLR,BKN,0.01,WeatherDisplay:10.37,2013-02-28 03:16:00,
2013-02-27 19:21:00,38.3,35.6,30.19,SE,135,0.7,3.4,90,0.00,CLR,BKN,0.01,WeatherDisplay:10.37,2013-02-28 03:21:00,
2013-02-27 19:26:00,38.3,35.6,30.19,East,90,0.7,3.4,90,0.00,CLR,BKN,0.01,WeatherDisplay:10.37,2013-02-28 03:26:00,
2013-02-27 19:27:00,38.3,35.9,30.19,East,90,0.7,2.3,91,0.00,CLR,BKN,0.01,WeatherDisplay:10.37,2013-02-28 03:27:00,
2013-02-27 19:31:00,38.3,35.9,30.19,SE,135,1.6,3.4,91,0.00,CLR,BKN,0.01,WeatherDisplay:10.37,2013-02-28 03:31:00,
2013-02-27 19:36:00,38.3,35.9,30.19,NE,45,1.6,3.4,91,0.00,CLR,BKN,0.01,WeatherDisplay:10.37,2013-02-28 03:36:00,
2013-02-27 20:01:00,37.6,34.9,30.18,SE,135,0.0,1.1,90,0.00,CLR,BKN,0.01,WeatherDisplay:10.37,2013-02-28 04:01:00,
2013-02-27 20:06:00,37.6,34.9,30.18,SE,135,0.0,1.1,90,0.00,CLR,BKN,0.01,WeatherDisplay:10.37,2013-02-28 04:06:00,
2013-02-27 20:11:00,37.0,34.4,30.18,East,90,0.0,1.1,90,0.00,CLR,BKN,0.01,WeatherDisplay:10.37,2013-02-28 04:11:00,
2013-02-27 20:16:00,36.9,34.5,30.18,SE,135,0.0,1.1,91,0.00,CLR,BKN,0.01,WeatherDisplay:10.37,2013-02-28 04:16:00,
2013-02-27 20:21:00,36.9,34.5,30.18,SE,135,0.0,1.1,91,0.00,CLR,BKN,0.01,WeatherDisplay:10.37,2013-02-28 04:21:00,
2013-02-27 20:26:00,36.9,34.5,30.19,East,90,0.0,1.1,91,0.00,CLR,BKN,0.01,WeatherDisplay:10.37,2013-02-28 04:26:00,
2013-02-27 20:27:00,36.7,34.3,30.19,SE,135,0.0,1.1,91,0.00,CLR,BKN,0.01,WeatherDisplay:10.37,2013-02-28 04:27:00,
2013-02-27 20:31:00,36.7,34.3,30.19,NE,45,0.0,1.1,91,0.00,CLR,BKN,0.01,WeatherDisplay:10.37,2013-02-28 04:31:00,
2013-02-27 20:36:00,36.7,34.3,30.19,SE,135,0.0,1.1,91,0.00,CLR,BKN,0.01,WeatherDisplay:10.37,2013-02-28 04:36:00,
2013-02-27 21:01:00,35.8,33.4,30.19,SE,135,0.0,1.1,91,0.00,CLR,BKN,0.01,WeatherDisplay:10.37,2013-02-28 05:01:00,
2013-02-27 21:06:00,35.8,33.4,30.19,SE,135,0.0,0.0,91,0.00,CLR,BKN,0.01,WeatherDisplay:10.37,2013-02-28 05:06:00,
2013-02-27 21:11:00,35.4,33.3,30.19,SE,135,0.0,1.1,92,0.00,CLR,BKN,0.01,WeatherDisplay:10.37,2013-02-28 05:11:00,
2013-02-27 21:16:00,35.2,33.1,30.19,SE,135,0.0,0.0,92,0.00,CLR,BKN,0.01,WeatherDisplay:10.37,2013-02-28 05:16:00,
2013-02-27 21:21:00,35.1,33.0,30.19,SE,135,0.0,0.0,92,0.00,CLR,BKN,0.01,WeatherDisplay:10.37,2013-02-28 05:21:00,
2013-02-27 21:26:00,34.9,32.8,30.19,SE,135,0.0,1.1,92,0.00,CLR,BKN,0.01,WeatherDisplay:10.37,2013-02-28 05:26:00,
2013-02-27 21:27:00,34.5,32.4,30.19,SE,135,0.0,1.1,92,0.00,CLR,BKN,0.01,WeatherDisplay:10.37,2013-02-28 05:27:00,
2013-02-27 21:31:00,34.7,32.6,30.19,SE,135,0.0,0.0,92,0.00,CLR,BKN,0.01,WeatherDisplay:10.37,2013-02-28 05:31:00,
2013-02-27 21:36:00,34.5,32.4,30.19,SE,135,0.0,1.1,92,0.00,CLR,BKN,0.01,WeatherDisplay:10.37,2013-02-28 05:36:00,
2013-02-27 22:01:00,34.9,33.1,30.20,SE,135,0.0,1.1,93,0.00,CLR,BKN,0.01,WeatherDisplay:10.37,2013-02-28 06:01:00,
2013-02-27 22:06:00,34.9,33.1,30.20,SE,135,0.0,1.1,93,0.00,CLR,BKN,0.01,WeatherDisplay:10.37,2013-02-28 06:06:00,
2013-02-27 22:11:00,35.2,33.7,30.20,SE,135,0.0,1.1,94,0.00,CLR,BKN,0.01,WeatherDisplay:10.37,2013-02-28 06:11:00,
2013-02-27 22:16:00,35.4,33.9,30.20,SE,135,0.0,1.1,94,0.00,CLR,BKN,0.01,WeatherDisplay:10.37,2013-02-28 06:16:00,
2013-02-27 22:21:00,35.6,34.0,30.19,East,90,0.0,1.1,94,0.00,CLR,BKN,0.01,WeatherDisplay:10.37,2013-02-28 06:21:00,
2013-02-27 22:26:00,36.0,34.4,30.19,NE,45,0.0,3.4,94,0.00,CLR,BKN,0.01,WeatherDisplay:10.37,2013-02-28 06:26:00,
2013-02-27 22:27:00,37.0,35.7,30.19,East,90,0.7,3.4,95,0.00,CLR,BKN,0.01,WeatherDisplay:10.37,2013-02-28 06:27:00,
2013-02-27 22:31:00,36.7,35.4,30.19,NE,45,1.6,3.4,95,0.00,CLR,BKN,0.01,WeatherDisplay:10.37,2013-02-28 06:31:00,
2013-02-27 22:36:00,37.0,35.7,30.19,West,270,0.0,3.4,95,0.00,CLR,BKN,0.01,WeatherDisplay:10.37,2013-02-28 06:36:00,
2013-02-27 23:01:00,38.1,36.3,30.20,East,90,0.7,3.4,93,0.00,CLR,BKN,0.01,WeatherDisplay:10.37,2013-02-28 07:01:00,
2013-02-27 23:06:00,38.1,36.3,30.20,East,90,0.7,2.3,93,0.00,CLR,BKN,0.01,WeatherDisplay:10.37,2013-02-28 07:06:00,
2013-02-27 23:11:00,38.3,36.5,30.20,East,90,2.2,4.6,93,0.00,CLR,BKN,0.01,WeatherDisplay:10.37,2013-02-28 07:11:00,
2013-02-27 23:16:00,38.5,36.4,30.20,East,90,1.6,5.8,92,0.00,CLR,BKN,0.01,WeatherDisplay:10.37,2013-02-28 07:16:00,
2013-02-27 23:21:00,38.7,36.5,30.20,SE,135,1.6,3.8,92,0.00,CLR,BKN,0.01,WeatherDisplay:10.37,2013-02-28 07:21:00,
2013-02-27 23:26:00,38.5,36.4,30.19,SE,135,0.7,3.4,92,0.00,CLR,BKN,0.01,WeatherDisplay:10.37,2013-02-28 07:26:00,
2013-02-27 23:27:00,38.5,36.4,30.19,SE,135,1.6,3.4,92,0.00,CLR,BKN,0.01,WeatherDisplay:10.37,2013-02-28 07:27:00,
2013-02-27 23:31:00,38.5,36.4,30.19,East,90,2.2,4.6,92,0.00,CLR,BKN,0.01,WeatherDisplay:10.37,2013-02-28 07:31:00,
2013-02-27 23:36:00,38.5,36.4,30.19,East,90,0.7,4.6,92,0.00,CLR,BKN,0.01,WeatherDisplay:10.37,2013-02-28 07:36:00,